Wind_Speed
5 4 5 5 4 5 5 6 7 8 8 8 8 9 9 9 9 9 10 10 10 10 10 10 9 9 9 8 8 8 7 7 6 7 6 5 5 6 6 5 5 5 6
5 4 5 4 5 4 4 5 6 7 7 7 8 8 8 8 8 8 9 9 9 9 10 9 9 9 8 8 7 7 6 6 6 6 6 5 6 6 5 5 6 5 6
5 4 4 4 4 4 4 4 5 6 7 7 7 8 8 8 8 7 8 9 9 9 9 9 8 8 8 7 7 6 6 6 6 6 5 5 5 6 5 6 6 6 7
5 5 4 4 4 4 4 4 5 5 6 6 6 7 8 7 7 7 8 9 9 9 9 9 8 8 7 7 6 7 6 5 6 6 5 5 5 6 6 6 6 6 6
6 6 5 4 4 4 4 4 4 5 5 5 6 6 7 7 7 8 7 8 9 9 9 8 8 7 6 6 6 6 6 6 6 6 6 5 5 6 6 6 6 6 6
7 7 6 4 3 3 4 4 3 4 5 6 6 7 7 7 8 7 8 9 10 9 9 8 7 7 6 6 6 5 6 6 6 5 6 5 5 5 6 6 5 5 5
8 7 6 4 3 4 3 3 3 4 4 5 6 6 6 7 7 8 9 9 9 8 8 8 7 7 6 6 6 6 5 5 5 5 5 5 5 6 6 5 5 5 4
9 7 7 6 4 4 3 3 3 3 4 4 5 6 6 7 8 8 9 9 9 9 8 7 7 7 6 6 6 6 5 5 4 4 5 5 5 5 5 4 4 4 3
11 9 8 7 5 4 3 3 3 4 4 4 5 6 6 7 8 8 8 8 8 8 7 7 7 7 6 5 5 5 5 5 4 4 4 4 4 4 4 3 3 3 3
12 11 9 8 7 5 3 3 3 4 4 4 4 5 5 6 7 8 8 8 8 7 6 5 6 6 6 5 5 4 5 5 5 4 3 3 4 4 3 3 2 2 1
13 12 11 9 8 6 4 3 3 3 3 3 4 4 5 5 6 7 7 7 7 7 6 5 6 5 5 5 5 5 5 4 4 4 3 3 3 3 2 2 1 2 1
15 14 12 11 9 7 5 3 2 3 3 3 3 4 5 5 5 5 6 6 6 6 6 5 5 5 5 5 5 5 4 4 4 4 3 3 3 2 1 1 1 1 2
15 15 13 12 10 8 6 4 3 2 1 2 3 4 4 4 4 4 5 5 5 5 5 5 5 4 4 4 5 4 4 4 5 4 4 3 2 2 1 1 1 1 2
15 14 14 14 12 9 8 5 4 2 1 1 3 4 4 3 4 4 4 4 4 4 4 4 4 3 4 5 5 5 4 4 4 4 3 2 2 1 1 1 1 2 2
16 15 13 13 13 12 9 7 5 3 2 1 2 2 3 3 3 3 3 3 3 4 3 4 4 4 4 5 5 4 4 4 4 3 3 2 2 2 2 2 3 3 3
16 15 14 13 12 12 11 9 7 6 3 2 2 2 2 2 2 2 2 3 3 4 4 3 3 3 4 4 4 4 4 4 3 2 3 3 3 3 3 4 4 4 5
16 16 14 13 12 12 11 10 9 7 5 4 3 2 1 1 1 1 2 2 2 3 4 3 3 3 4 4 5 4 4 3 3 3 3 4 4 4 5 5 5 5 5
16 15 14 12 12 12 11 10 10 9 7 5 4 2 1 1 1 1 1 2 3 3 4 3 3 3 4 4 4 4 4 4 3 3 3 4 5 5 6 6 6 6 7
16 15 14 12 12 12 12 11 9 9 8 6 5 4 1 0 1 1 2 3 3 3 4 4 3 3 3 3 3 4 4 4 3 4 4 4 5 6 6 7 7 8 8
15 14 14 13 12 12 11 11 10 9 8 7 5 4 3 1 1 1 2 3 3 3 4 4 4 4 4 4 4 4 4 5 4 5 5 6 6 6 7 8 8 8 8
15 14 13 12 12 12 11 10 9 9 8 7 6 5 4 3 2 1 1 2 3 4 4 4 5 5 6 5 5 5 5 6 6 6 7 7 8 8 8 8 9 9 10
14 14 13 12 11 11 11 10 10 9 9 8 7 6 5 4 3 2 2 2 3 3 4 5 5 5 5 6 6 6 6 7 7 8 8 8 9 9 9 9 10 11 11
13 14 14 12 11 11 11 11 10 9 9 8 7 6 6 5 4 3 3 3 4 4 4 4 5 5 5 5 6 7 8 8 8 9 9 9 9 10 11 11 11 12 12
12 12 13 12 11 11 11 11 11 10 9 9 8 7 7 6 6 5 5 4 4 4 4 5 5 6 6 6 7 8 8 9 9 10 10 10 10 10 11 11 11 11 12
11 11 12 12 12 11 11 11 11 10 9 9 8 8 7 7 6 6 6 6 5 4 5 5 6 7 7 7 8 8 9 10 10 10 10 11 11 12 12 12 13 13 13
10 11 11 11 11 10 11 11 11 10 9 8 8 8 8 8 8 7 7 8 7 6 5 6 7 8 8 9 9 10 10 10 10 10 11 11 12 12 12 13 13 14 14
Wind_Direction
29 34 32 45 68 85 108 129 145 153 146 145 145 145 151 152 147 144 145 146 147 147 147 146 148 146 142 140 138 135 131 133 131 126 117 120 126 125 121 117 113 107 106
30 40 48 61 79 95 106 127 140 148 146 143 147 153 155 154 154 150 153 152 153 153 153 150 146 146 144 144 143 143 141 135 134 129 123 127 130 129 120 117 113 112 114
38 51 55 73 86 98 107 128 134 139 145 146 148 155 154 155 159 160 161 160 158 155 153 151 147 150 147 143 145 145 141 141 139 130 124 125 127 127 120 114 113 108 119
45 49 64 90 95 106 120 127 137 139 144 144 147 153 154 154 155 154 157 159 157 155 153 155 152 152 149 144 147 147 144 141 136 130 124 125 120 114 113 113 112 106 117
48 47 64 88 100 108 113 127 133 139 140 143 151 159 157 154 153 156 157 156 156 150 149 156 151 153 149 149 151 152 147 141 135 124 123 123 113 109 108 110 113 111 117
46 47 58 68 91 109 108 114 124 133 141 146 153 157 159 160 159 160 161 162 159 156 157 156 150 151 147 149 151 148 148 144 137 124 127 125 112 106 107 105 109 113 112
48 50 57 57 83 100 118 121 127 131 142 153 155 154 154 159 165 163 162 166 162 159 159 155 145 141 142 148 146 146 148 144 138 132 130 125 110 103 106 109 113 112 109
48 49 53 59 80 91 107 132 128 132 139 146 151 153 148 155 160 161 160 161 159 151 151 154 148 143 144 145 143 144 145 138 131 129 129 124 115 112 109 111 112 110 108
50 53 54 57 64 83 97 116 126 133 130 141 143 147 150 145 152 156 159 156 150 148 148 151 150 151 149 145 143 143 145 139 132 130 130 130 127 118 110 116 123 115 113
50 55 58 59 63 70 92 109 124 136 137 136 137 136 148 150 149 154 156 155 154 152 151 150 150 148 153 152 145 147 155 153 147 140 125 133 128 125 116 122 138 137 140
49 49 51 55 59 69 82 93 122 135 137 132 138 138 145 151 146 148 146 150 154 154 154 153 146 147 156 157 157 158 160 164 162 151 131 131 130 132 133 131 150 166 172
45 46 47 47 52 60 70 72 106 153 153 153 143 147 148 143 138 141 140 146 157 158 155 155 150 148 151 153 161 162 161 162 162 151 147 149 155 159 162 177 183 195 204
43 44 44 44 45 52 59 67 92 135 158 150 146 147 148 139 129 137 137 142 156 164 158 154 151 148 150 149 156 159 156 156 159 156 157 156 160 163 162 159 180 223 233
41 42 42 40 38 39 45 53 63 73 72 119 141 139 143 136 128 138 141 141 156 160 163 160 147 144 155 159 158 155 148 151 161 163 162 170 171 166 180 204 229 256 256
40 38 39 39 39 37 38 42 44 39 42 97 130 133 137 135 138 144 147 150 164 173 175 166 165 169 168 162 162 160 156 157 161 169 171 196 208 225 253 256 256 261 265
38 36 37 38 39 38 38 38 38 40 41 57 82 121 137 151 160 157 156 181 183 180 184 180 180 177 178 176 171 172 171 174 186 200 210 224 234 246 262 267 270 269 270
37 37 36 36 37 38 38 36 35 42 53 63 58 88 131 147 157 142 164 186 202 198 200 197 191 188 181 185 191 191 189 196 211 224 237 245 250 259 267 272 276 273 272
35 35 36 37 37 38 39 37 37 41 51 58 59 62 62 156 179 198 191 204 213 211 209 209 203 196 197 199 204 209 211 219 230 242 251 254 258 263 266 269 268 272 275
31 31 33 35 36 38 40 40 43 43 44 50 51 54 54 260 260 252 237 231 238 231 226 218 218 224 224 223 225 224 226 234 250 267 262 265 268 269 273 271 272 275 279
27 28 30 33 35 35 37 39 43 44 41 41 44 44 38 18 305 252 272 263 253 244 231 229 236 240 243 247 244 236 239 249 264 270 271 272 273 274 277 279 279 279 280
22 23 23 27 30 32 33 33 35 36 33 30 31 30 20 11 3 339 304 274 266 262 246 245 256 253 250 253 247 248 254 262 270 273 275 274 275 277 282 281 277 280 281
18 19 19 21 24 26 28 28 29 30 30 30 31 26 21 16 6 325 306 312 299 274 255 254 264 257 254 253 250 256 259 265 273 276 275 275 276 280 281 278 279 282 281
12 14 15 17 19 20 20 20 19 21 26 28 30 27 21 19 7 355 334 319 307 298 273 263 266 260 254 254 256 261 264 268 273 279 278 276 277 279 279 279 279 283 286
7 9 10 12 13 15 14 12 10 13 19 24 22 18 17 16 7 357 348 338 321 305 282 271 271 269 268 269 266 266 269 272 275 277 280 279 279 280 282 284 285 286 286
359 2 4 5 5 6 7 7 7 8 9 11 12 10 7 3 359 351 347 339 327 311 292 285 276 278 279 278 274 273 275 277 278 279 279 282 285 285 287 288 289 289 290
347 351 354 355 357 357 359 2 4 3 1 2 3 2 1 359 357 349 338 336 329 321 303 290 289 288 283 281 279 279 281 280 282 285 285 285 287 286 286 287 289 290 290
Height
5863 5862 5862 5862 5862 5862 5862 5862 5863 5863 5864 5865 5866 5867 5868 5869 5870 5870 5871 5872 5873 5875 5876 5878 5879 5880 5882 5883 5884 5885 5886 5887 5888 5888 5889 5890 5890 5891 5892 5893 5893 5894 5895
5864 5863 5863 5863 5863 5863 5863 5864 5864 5865 5865 5866 5867 5868 5869 5870 5871 5871 5872 5873 5875 5876 5877 5878 5880 5881 5882 5884 5885 5886 5887 5887 5888 5889 5890 5890 5891 5892 5893 5893 5894 5895 5895
5864 5864 5864 5863 5863 5864 5864 5864 5865 5866 5866 5867 5868 5869 5870 5871 5872 5872 5873 5874 5876 5877 5878 5879 5881 5882 5883 5884 5885 5886 5887 5888 5889 5890 5890 5891 5891 5892 5893 5894 5895 5895 5896
5865 5865 5864 5863 5864 5865 5865 5865 5866 5867 5867 5868 5869 5870 5870 5872 5873 5873 5874 5875 5877 5878 5879 5880 5881 5883 5884 5885 5886 5887 5888 5889 5890 5890 5891 5891 5892 5893 5894 5895 5896 5897 5897
5866 5866 5865 5865 5865 5866 5866 5867 5868 5868 5868 5869 5870 5870 5871 5872 5873 5874 5875 5876 5877 5879 5880 5881 5882 5883 5884 5885 5886 5887 5888 5889 5890 5891 5891 5892 5893 5894 5895 5896 5897 5897 5898
5867 5867 5866 5866 5867 5867 5867 5868 5869 5869 5870 5870 5871 5871 5872 5873 5874 5875 5876 5877 5878 5879 5881 5882 5883 5884 5885 5886 5887 5888 5889 5890 5891 5892 5892 5893 5894 5895 5896 5897 5898 5898 5899
5868 5868 5867 5867 5868 5868 5868 5869 5870 5870 5871 5871 5871 5872 5872 5873 5874 5875 5877 5878 5879 5880 5882 5883 5884 5885 5886 5886 5887 5889 5890 5891 5891 5892 5893 5894 5895 5896 5896 5897 5898 5899 5900
5870 5869 5868 5868 5869 5869 5869 5870 5870 5871 5871 5872 5872 5873 5873 5874 5875 5876 5877 5879 5880 5881 5882 5884 5885 5886 5887 5887 5888 5889 5890 5891 5892 5893 5894 5895 5896 5897 5897 5898 5899 5900 5901
5871 5871 5870 5870 5869 5870 5870 5871 5871 5872 5872 5873 5873 5874 5875 5875 5876 5877 5878 5879 5881 5882 5883 5884 5885 5886 5887 5888 5889 5890 5891 5892 5893 5894 5895 5895 5896 5897 5898 5899 5900 5900 5901
5873 5873 5872 5872 5871 5871 5871 5872 5872 5873 5873 5874 5874 5875 5875 5876 5877 5878 5879 5880 5882 5883 5884 5885 5886 5887 5888 5889 5889 5890 5891 5892 5894 5894 5894 5896 5897 5898 5898 5899 5900 5901 5901
5876 5875 5874 5874 5873 5873 5873 5873 5873 5873 5874 5874 5875 5876 5876 5877 5878 5879 5880 5881 5883 5884 5885 5886 5887 5887 5888 5889 5890 5891 5892 5893 5894 5895 5895 5896 5897 5898 5899 5899 5900 5901 5901
5878 5877 5876 5876 5875 5874 5873 5874 5874 5874 5874 5875 5876 5876 5877 5878 5879 5880 5881 5882 5883 5884 5885 5886 5887 5888 5889 5890 5890 5891 5892 5893 5894 5895 5896 5897 5897 5898 5899 5899 5900 5901 5901
5881 5880 5879 5878 5877 5876 5875 5875 5875 5875 5875 5876 5876 5877 5878 5879 5880 5881 5882 5883 5884 5885 5886 5887 5888 5889 5889 5890 5891 5892 5892 5893 5895 5895 5896 5897 5898 5898 5898 5899 5900 5900 5901
5883 5882 5881 5880 5879 5878 5878 5877 5877 5877 5877 5877 5878 5878 5879 5880 5881 5882 5883 5884 5885 5885 5886 5887 5888 5889 5890 5890 5891 5892 5893 5894 5895 5895 5896 5897 5897 5898 5898 5899 5899 5900 5900
5886 5885 5883 5882 5881 5880 5879 5879 5878 5878 5878 5878 5879 5879 5880 5881 5882 5882 5883 5884 5885 5886 5887 5888 5889 5890 5890 5891 5891 5892 5893 5894 5895 5895 5896 5897 5897 5898 5898 5898 5899 5899 5899
5888 5887 5886 5885 5883 5882 5881 5880 5880 5879 5879 5879 5879 5880 5881 5881 5882 5883 5884 5885 5885 5886 5887 5888 5889 5890 5890 5891 5892 5893 5893 5894 5895 5895 5896 5896 5897 5897 5897 5898 5898 5898 5898
5891 5889 5888 5887 5886 5885 5884 5882 5881 5880 5880 5880 5880 5881 5881 5882 5883 5884 5885 5885 5885 5886 5887 5888 5889 5890 5890 5891 5892 5892 5893 5894 5894 5895 5895 5896 5896 5896 5896 5896 5897 5896 5897
5894 5892 5890 5889 5888 5887 5886 5884 5883 5883 5882 5882 5882 5882 5882 5883 5884 5884 5885 5885 5886 5887 5887 5888 5889 5889 5890 5890 5891 5891 5892 5893 5894 5894 5894 5895 5895 5895 5895 5895 5895 5895 5895
5896 5894 5892 5891 5890 5888 5887 5886 5885 5885 5884 5884 5883 5883 5883 5883 5884 5884 5884 5885 5886 5886 5887 5888 5888 5889 5889 5890 5890 5891 5892 5892 5893 5893 5893 5893 5894 5894 5894 5893 5894 5893 5893
5898 5896 5895 5893 5892 5891 5889 5888 5888 5887 5886 5885 5885 5884 5884 5884 5884 5884 5884 5885 5885 5886 5886 5887 5888 5888 5889 5889 5890 5890 5891 5891 5892 5892 5892 5892 5892 5892 5892 5892 5892 5891 5891
5900 5898 5897 5895 5894 5893 5891 5890 5889 5888 5887 5887 5886 5885 5885 5885 5884 5884 5885 5885 5885 5886 5886 5886 5887 5887 5888 5888 5889 5889 5890 5890 5890 5890 5890 5890 5890 5890 5890 5890 5890 5889 5889
5901 5900 5898 5897 5895 5894 5893 5892 5891 5890 5889 5888 5887 5886 5886 5885 5885 5885 5885 5885 5885 5885 5885 5885 5886 5886 5886 5887 5888 5888 5888 5889 5889 5888 5888 5888 5888 5888 5888 5887 5887 5887 5887
5903 5901 5900 5898 5897 5896 5894 5893 5892 5891 5890 5889 5888 5887 5886 5886 5885 5885 5885 5885 5885 5884 5884 5884 5884 5884 5885 5885 5886 5886 5887 5887 5887 5887 5886 5886 5886 5886 5885 5885 5885 5884 5884
5903 5902 5901 5899 5898 5897 5895 5894 5893 5892 5891 5890 5889 5888 5887 5886 5886 5885 5885 5884 5884 5883 5883 5883 5883 5883 5884 5884 5884 5884 5884 5884 5884 5884 5884 5884 5883 5883 5883 5882 5882 5882 5881
5904 5903 5901 5900 5899 5897 5896 5895 5894 5892 5892 5891 5890 5889 5887 5886 5886 5885 5884 5883 5883 5882 5883 5882 5882 5882 5882 5882 5882 5882 5882 5882 5881 5881 5881 5881 5880 5880 5880 5879 5879 5878 5878
5903 5903 5901 5900 5899 5897 5896 5895 5894 5893 5892 5891 5890 5889 5888 5887 5886 5885 5884 5883 5882 5881 5881 5881 5881 5880 5880 5880 5880 5880 5879 5879 5879 5879 5878 5878 5878 5877 5876 5876 5876 5875 5874